Weather in Matsumoto

Japan     36°13′56″N   137°58′01″E
temp.,
°C
wind,
m/s
gust,
m/s
humid.,
%
clouds,
%
prec.,
mm/h
press.,
hPa
HPBL,
m
8 march, mon
mon800:00+2ene018390 0.2 102578
03:00+1nne118395 0.2 102597
06:000nne1183100 0.0 1025100
09:00+2n1175100 0.0 1025290
12:00+7n2260100 0.0 1024749
15:00+7n446081 0.0 1024779
18:00+1n348024 0.0 1025262
21:00−1nnw118641 0.0 1027115
9 march, tue
tue900:00−1wsw008540 0.0 102679
03:00−1se118421 0.0 102634
06:00−1se11870 0.0 102621
09:00+7se02590 0.0 1026546
12:00+12sse1343100 0.0 10241346
15:00+12ssw2440100 0.0 10221697
18:00+7s3564100 0.0 1022330
21:00+4s2376100 0.0 1023125
10 march, wed
wed1000:00+3ssw2276100 0.0 102389
03:00+2ssw118096 0.0 102230
06:000nnw12789 0.0 102445
09:00+4n23706 0.0 1025683
12:00+7n335319 0.0 1024879
15:00+6n346010 0.0 1024669
18:00+1n23720 0.0 1026208
21:00−2n11800 0.0 1029119
11 march, thu
thu1100:00−2ese00780 0.0 103063
03:00−1s11770 0.0 103026
06:00−1s12720 0.0 103031
09:00+7s13530 0.0 1030502
12:00+14ne12320 0.0 10281240
15:00+12n223433 0.0 10271081
18:00+7nnw125079 0.0 102768
21:00+5ssw116189 0.0 102936
12 march, fri
fri1200:00+4s2272100 0.0 102871
03:00+3s2271100 0.0 102767
06:00+1s226950 0.0 102871
09:00+7sse235175 0.0 1027316
12:00+12se1232100 0.0 10261046
15:00+10ssw2247100 0.1 10251527
18:00+5ssw2376100 0.5 1025351
21:00+4s1291100 2.2 1026243